Location: *
(2.7500°S, 66.6833°W)
Time: 03:18:23
(UTC+00:00)

Ariane 44P Rocket - Pass Details

Date: 24 May 2024
Orbit: 305 x 22263 km, 4.0° (Epoch: 23 June)

Event Time Altitude Azimuth Distance (km) Brightness Sun altitude
Rises 22:41:03 0° 266° (W) 3,136 7.6 -5.0°
Reaches altitude 10° 22:44:05 10° 265° (W) 1,526 5.8 -5.7°
Maximum altitude 22:46:46 75° 179° (S) 322 1.1 -6.4°
Drops below altitude 10° 22:48:53 10° 92° (E) 1,200 3.5 -6.9°
Enters shadow 22:49:11 - 91° (E) 1,362 3.7 -6.9°
